Tracking 19415 objects as of 15-Dec-2018
HD Live streaming from Space Station
objects crossing your sky now

BEIDOU 3M18

Track BEIDOU 3M18 now!
BEIDOU 3M18 is classified as:


NORAD ID: 43707
Int'l Code: 2018-093B
Perigee: 21,507.8 km
Apogee: 21,561.2 km
Inclination: 55.0 °
Period: 773.2 minutes
Semi major axis: 27905 km
RCS: Unknown
Launch date: November 18, 2018
Source: People's Republic of China (PRC)
Launch site: Xichang Space Center, China (XSC)
aabbcc
Your satellite tracking list
Your tracking list is empty




NASA's NSSDC Master Catalog

Two Line Element Set (TLE):
1 43707U 18093B   18348.92946862 -.00000038  00000-0  00000+0 0  9993
2 43707  54.9830 275.8332 0009559 280.5999   4.4111  1.86237901   471
Source of the keplerian elements: AFSPC